Year,Month,Day,Hour,Minute,Value (Times are PST for temperature in C)
2014,12,07,00,00,6.20
2014,12,07,00,01,6.20
2014,12,07,00,02,6.20
2014,12,07,00,03,6.20
2014,12,07,00,04,6.20
2014,12,07,00,05,6.20
2014,12,07,00,06,6.20
2014,12,07,00,07,6.20
2014,12,07,00,08,6.10
2014,12,07,00,09,6.20
2014,12,07,00,10,6.10
2014,12,07,00,11,6.20
2014,12,07,00,12,6.20
2014,12,07,00,13,6.20
2014,12,07,00,14,6.20
2014,12,07,00,15,6.20
2014,12,07,00,16,6.20
2014,12,07,00,17,6.20
2014,12,07,00,18,6.20
2014,12,07,00,19,6.20
2014,12,07,00,20,6.20
2014,12,07,00,21,6.20
2014,12,07,00,22,6.30
2014,12,07,00,23,6.30
2014,12,07,00,24,6.30
2014,12,07,00,25,6.30
2014,12,07,00,26,6.30
2014,12,07,00,27,6.30
2014,12,07,00,28,6.30
2014,12,07,00,29,6.30
2014,12,07,00,30,6.40
2014,12,07,00,31,6.40
2014,12,07,00,32,6.50
2014,12,07,00,33,6.50
2014,12,07,00,34,6.50
2014,12,07,00,35,6.50
2014,12,07,00,36,6.50
2014,12,07,00,37,6.50
2014,12,07,00,38,6.60
2014,12,07,00,39,6.60
2014,12,07,00,40,6.60
2014,12,07,00,41,6.60
2014,12,07,00,42,6.60
2014,12,07,00,43,6.60
2014,12,07,00,44,6.60
2014,12,07,00,45,6.60
2014,12,07,00,46,6.60
2014,12,07,00,47,6.60
2014,12,07,00,48,6.70
2014,12,07,00,49,6.80
2014,12,07,00,50,6.80
2014,12,07,00,51,6.90
2014,12,07,00,52,6.90
2014,12,07,00,53,6.90
2014,12,07,00,54,6.90
2014,12,07,00,55,6.80
2014,12,07,00,56,6.80
2014,12,07,00,57,6.80
2014,12,07,00,58,6.80
2014,12,07,00,59,6.80
2014,12,07,01,00,6.90
2014,12,07,01,01,6.90
2014,12,07,01,02,6.90
2014,12,07,01,03,6.90
2014,12,07,01,04,6.90
2014,12,07,01,05,6.90
2014,12,07,01,06,6.90
2014,12,07,01,07,6.90
2014,12,07,01,08,6.90
2014,12,07,01,09,7.00
2014,12,07,01,10,7.00
2014,12,07,01,11,7.00
2014,12,07,01,12,7.10
2014,12,07,01,13,7.10
2014,12,07,01,14,7.10
2014,12,07,01,15,7.10
2014,12,07,01,16,7.20
2014,12,07,01,17,7.20
2014,12,07,01,18,7.20
2014,12,07,01,19,7.20
2014,12,07,01,20,7.20
2014,12,07,01,21,7.20
2014,12,07,01,22,7.20
2014,12,07,01,23,7.20
2014,12,07,01,24,7.20
2014,12,07,01,25,7.20
2014,12,07,01,26,7.20
2014,12,07,01,27,7.20
2014,12,07,01,28,7.20
2014,12,07,01,29,7.20
2014,12,07,01,30,7.20
2014,12,07,01,31,7.20
2014,12,07,01,32,7.20
2014,12,07,01,33,7.20
2014,12,07,01,34,7.20
2014,12,07,01,35,7.20
2014,12,07,01,36,7.20
2014,12,07,01,37,7.30
2014,12,07,01,38,7.30
2014,12,07,01,39,7.40
2014,12,07,01,40,7.40
2014,12,07,01,41,7.50
2014,12,07,01,42,7.50
2014,12,07,01,43,7.60
2014,12,07,01,44,7.60
2014,12,07,01,45,7.60
2014,12,07,01,46,7.60
2014,12,07,01,47,7.60
2014,12,07,01,48,7.60
2014,12,07,01,49,7.70
2014,12,07,01,50,7.70
2014,12,07,01,51,7.70
2014,12,07,01,52,7.70
2014,12,07,01,53,7.80
2014,12,07,01,54,7.80
2014,12,07,01,55,7.70
2014,12,07,01,56,7.80
2014,12,07,01,57,7.80
2014,12,07,01,58,7.80
2014,12,07,01,59,7.80
2014,12,07,02,00,7.80
2014,12,07,02,01,7.90
2014,12,07,02,02,7.90
2014,12,07,02,03,8.00
2014,12,07,02,04,8.00
2014,12,07,02,05,8.10
2014,12,07,02,06,8.10
2014,12,07,02,07,8.20
2014,12,07,02,08,8.20
2014,12,07,02,09,8.20
2014,12,07,02,10,8.30
2014,12,07,02,11,8.30
2014,12,07,02,12,8.30
2014,12,07,02,13,8.30
2014,12,07,02,14,8.20
2014,12,07,02,15,8.20
2014,12,07,02,16,8.10
2014,12,07,02,17,8.10
2014,12,07,02,18,8.10
2014,12,07,02,19,8.10
2014,12,07,02,20,8.10
2014,12,07,02,21,8.10
2014,12,07,02,22,8.20
2014,12,07,02,23,8.20
2014,12,07,02,24,8.30
2014,12,07,02,25,8.30
2014,12,07,02,26,8.30
2014,12,07,02,27,8.30
2014,12,07,02,28,8.40
2014,12,07,02,29,8.40
2014,12,07,02,30,8.40
2014,12,07,02,31,8.50
2014,12,07,02,32,8.50
2014,12,07,02,33,8.50
2014,12,07,02,34,8.60
2014,12,07,02,35,8.60
2014,12,07,02,36,8.60
2014,12,07,02,37,8.60
2014,12,07,02,38,8.70
2014,12,07,02,39,8.70
2014,12,07,02,40,8.70
2014,12,07,02,41,8.70
2014,12,07,02,42,8.70
2014,12,07,02,43,8.70
2014,12,07,02,44,8.70
2014,12,07,02,45,8.70
2014,12,07,02,46,8.70
2014,12,07,02,47,8.80
2014,12,07,02,48,8.80
2014,12,07,02,49,8.80
2014,12,07,02,50,8.80
2014,12,07,02,51,8.80
2014,12,07,02,52,8.80
2014,12,07,02,53,8.80
2014,12,07,02,54,8.80
2014,12,07,02,55,8.80
2014,12,07,02,56,8.80
2014,12,07,02,57,8.80
2014,12,07,02,58,8.80
2014,12,07,02,59,8.80
2014,12,07,03,00,8.80
2014,12,07,03,01,8.80
2014,12,07,03,02,8.80
2014,12,07,03,03,8.80
2014,12,07,03,04,8.80
2014,12,07,03,05,8.80
2014,12,07,03,06,8.80
2014,12,07,03,07,8.80
2014,12,07,03,08,8.80
2014,12,07,03,09,8.80
2014,12,07,03,10,8.80
2014,12,07,03,11,8.80
2014,12,07,03,12,8.80
2014,12,07,03,13,8.80
2014,12,07,03,14,8.80
2014,12,07,03,15,8.80
2014,12,07,03,16,8.80
2014,12,07,03,17,8.80
2014,12,07,03,18,8.80
2014,12,07,03,19,8.80
2014,12,07,03,20,8.80
2014,12,07,03,21,8.80
2014,12,07,03,22,8.80
2014,12,07,03,23,8.80
2014,12,07,03,24,8.80
2014,12,07,03,25,8.80
2014,12,07,03,26,8.80
2014,12,07,03,27,8.80
2014,12,07,03,28,8.80
2014,12,07,03,29,8.80
2014,12,07,03,30,8.80
2014,12,07,03,31,8.80
2014,12,07,03,32,8.80
2014,12,07,03,33,8.80
2014,12,07,03,34,8.80
2014,12,07,03,35,8.80
2014,12,07,03,36,8.80
2014,12,07,03,37,8.80
2014,12,07,03,38,8.80
2014,12,07,03,39,8.80
2014,12,07,03,40,8.80
2014,12,07,03,41,8.80
2014,12,07,03,42,8.80
2014,12,07,03,43,8.80
2014,12,07,03,44,8.80
2014,12,07,03,45,8.80
2014,12,07,03,46,8.80
2014,12,07,03,47,8.80
2014,12,07,03,48,8.80
2014,12,07,03,49,8.80
2014,12,07,03,50,8.80
2014,12,07,03,51,8.80
2014,12,07,03,52,8.80
2014,12,07,03,53,8.80
2014,12,07,03,54,8.80
2014,12,07,03,55,8.80
2014,12,07,03,56,8.80
2014,12,07,03,57,8.80
2014,12,07,03,58,8.80
2014,12,07,03,59,8.80
2014,12,07,04,00,8.80
2014,12,07,04,01,8.80
2014,12,07,04,02,8.80
2014,12,07,04,03,8.80
2014,12,07,04,04,8.80
2014,12,07,04,05,8.80
2014,12,07,04,06,8.80
2014,12,07,04,07,8.80
2014,12,07,04,08,8.80
2014,12,07,04,09,8.80
2014,12,07,04,10,8.80
2014,12,07,04,11,8.80
2014,12,07,04,12,8.80
2014,12,07,04,13,8.80
2014,12,07,04,14,8.80
2014,12,07,04,15,8.80
2014,12,07,04,16,8.80
2014,12,07,04,17,8.80
2014,12,07,04,18,8.80
2014,12,07,04,19,8.80
2014,12,07,04,20,8.80
2014,12,07,04,21,8.80
2014,12,07,04,22,8.80
2014,12,07,04,23,8.80
2014,12,07,04,24,8.80
2014,12,07,04,25,8.80
2014,12,07,04,26,8.80
2014,12,07,04,27,8.80
2014,12,07,04,28,8.80
2014,12,07,04,29,8.80
2014,12,07,04,30,8.90
2014,12,07,04,31,8.90
2014,12,07,04,32,8.90
2014,12,07,04,33,8.90
2014,12,07,04,34,8.90
2014,12,07,04,35,8.90
2014,12,07,04,36,8.90
2014,12,07,04,37,8.90
2014,12,07,04,38,8.90
2014,12,07,04,39,8.90
2014,12,07,04,40,8.90
2014,12,07,04,41,8.90
2014,12,07,04,42,8.90
2014,12,07,04,43,8.90
2014,12,07,04,44,9.00
2014,12,07,04,45,8.90
2014,12,07,04,46,9.00
2014,12,07,04,47,9.00
2014,12,07,04,48,9.00
2014,12,07,04,49,9.00
2014,12,07,04,50,9.00
2014,12,07,04,51,9.00
2014,12,07,04,52,9.00
2014,12,07,04,53,9.00
2014,12,07,04,54,9.00
2014,12,07,04,55,9.00
2014,12,07,04,56,9.00
2014,12,07,04,57,9.00
2014,12,07,04,58,9.00
2014,12,07,04,59,9.00
2014,12,07,05,00,9.00
2014,12,07,05,01,9.00
2014,12,07,05,02,9.00
2014,12,07,05,03,9.00
2014,12,07,05,04,9.00
2014,12,07,05,05,9.00
2014,12,07,05,06,9.00
2014,12,07,05,07,9.00
2014,12,07,05,08,9.00
2014,12,07,05,09,9.00
2014,12,07,05,10,9.00
2014,12,07,05,11,8.90
2014,12,07,05,12,8.90
2014,12,07,05,13,8.90
2014,12,07,05,14,8.90
2014,12,07,05,15,8.90
2014,12,07,05,16,8.90
2014,12,07,05,17,8.90
2014,12,07,05,18,8.90
2014,12,07,05,19,8.90
2014,12,07,05,20,8.90
2014,12,07,05,21,8.90
2014,12,07,05,22,8.90
2014,12,07,05,23,8.90
2014,12,07,05,24,8.90
2014,12,07,05,25,8.90
2014,12,07,05,26,8.90
2014,12,07,05,27,8.90
2014,12,07,05,28,8.90
2014,12,07,05,29,8.90
2014,12,07,05,30,8.90
2014,12,07,05,31,8.90
2014,12,07,05,32,8.90
2014,12,07,05,33,8.90
2014,12,07,05,34,8.90
2014,12,07,05,35,8.90
2014,12,07,05,36,8.90
2014,12,07,05,37,8.90
2014,12,07,05,38,9.00
2014,12,07,05,39,9.00
2014,12,07,05,40,9.00
2014,12,07,05,41,9.00
2014,12,07,05,42,9.00
2014,12,07,05,43,9.00
2014,12,07,05,44,9.00
2014,12,07,05,45,9.00
2014,12,07,05,46,9.00
2014,12,07,05,47,8.90
2014,12,07,05,48,8.90
2014,12,07,05,49,8.90
2014,12,07,05,50,8.90
2014,12,07,05,51,8.90
2014,12,07,05,52,8.90
2014,12,07,05,53,8.90
2014,12,07,05,54,8.90
2014,12,07,05,55,8.90
2014,12,07,05,56,8.90
2014,12,07,08,28,8.00
2014,12,07,08,29,8.00
2014,12,07,08,30,8.00
2014,12,07,08,31,8.00
2014,12,07,08,32,8.00
2014,12,07,08,33,8.00
2014,12,07,08,34,8.00
2014,12,07,08,35,8.00
2014,12,07,08,36,8.00
2014,12,07,08,37,8.00
2014,12,07,08,38,8.00
2014,12,07,08,39,8.00
2014,12,07,08,40,8.00
2014,12,07,08,41,8.00
2014,12,07,08,42,8.10
2014,12,07,08,43,8.10
2014,12,07,08,44,8.10
2014,12,07,08,45,8.10
2014,12,07,08,46,8.10
2014,12,07,08,47,8.10
2014,12,07,08,48,8.10
2014,12,07,08,49,8.10
2014,12,07,08,50,8.10
2014,12,07,08,51,8.10
2014,12,07,08,52,8.10
2014,12,07,08,53,8.10
2014,12,07,08,54,8.10
2014,12,07,08,55,8.10
2014,12,07,08,56,8.10
2014,12,07,08,57,8.10
2014,12,07,08,58,8.10
2014,12,07,08,59,8.10
2014,12,07,09,00,8.10
2014,12,07,09,01,8.10
2014,12,07,09,02,8.10
2014,12,07,09,03,8.10
2014,12,07,09,04,8.10
2014,12,07,09,05,8.10
2014,12,07,09,06,8.10
2014,12,07,09,07,8.10
2014,12,07,09,08,8.10
2014,12,07,09,09,8.10
2014,12,07,09,10,8.00
2014,12,07,09,11,8.00
2014,12,07,09,12,8.00
2014,12,07,09,13,8.00
2014,12,07,09,14,8.00
2014,12,07,09,15,8.00
2014,12,07,09,16,8.00
2014,12,07,09,17,8.00
2014,12,07,09,18,8.00
2014,12,07,09,19,8.00
2014,12,07,09,20,7.90
2014,12,07,09,21,7.90
2014,12,07,09,22,7.90
2014,12,07,09,23,7.90
2014,12,07,09,24,7.90
2014,12,07,09,25,7.90
2014,12,07,09,26,7.90
2014,12,07,09,27,7.90
2014,12,07,09,28,7.90
2014,12,07,09,29,7.90
2014,12,07,09,30,7.90
2014,12,07,09,31,7.90
2014,12,07,09,32,7.90
2014,12,07,09,33,7.90
2014,12,07,09,34,7.90
2014,12,07,09,35,7.90
2014,12,07,09,36,8.00
2014,12,07,09,37,7.90
2014,12,07,09,38,8.00
2014,12,07,09,39,8.00
2014,12,07,09,40,8.00
2014,12,07,09,41,8.00
2014,12,07,09,42,8.00
2014,12,07,09,43,8.00
2014,12,07,09,44,8.00
2014,12,07,09,45,8.10
2014,12,07,09,46,8.10
2014,12,07,09,47,8.10
2014,12,07,09,48,8.10
2014,12,07,09,49,8.10
2014,12,07,09,50,8.10
2014,12,07,09,51,8.10
2014,12,07,09,52,8.20
2014,12,07,09,53,8.20
2014,12,07,09,54,8.20
2014,12,07,09,55,8.20
2014,12,07,09,56,8.20
2014,12,07,09,57,8.20
2014,12,07,09,58,8.20
2014,12,07,09,59,8.30
2014,12,07,10,00,8.30
2014,12,07,10,01,8.30
2014,12,07,10,02,8.30
2014,12,07,10,03,8.30
2014,12,07,10,04,8.30
2014,12,07,10,05,8.40
2014,12,07,10,06,8.40
2014,12,07,10,07,8.40
2014,12,07,10,08,8.50
2014,12,07,10,09,8.50
2014,12,07,10,10,8.60
2014,12,07,10,11,8.60
2014,12,07,10,12,8.60
2014,12,07,10,13,8.60
2014,12,07,10,14,8.70
2014,12,07,10,15,8.70
2014,12,07,10,16,8.80
2014,12,07,10,17,8.80
2014,12,07,10,18,8.80
2014,12,07,10,19,8.80
2014,12,07,10,20,8.90
2014,12,07,10,21,8.90
2014,12,07,10,22,9.00
2014,12,07,10,23,9.00
2014,12,07,10,24,9.10
2014,12,07,10,25,9.10
2014,12,07,10,26,9.10
2014,12,07,10,27,9.20
2014,12,07,10,28,9.20
2014,12,07,10,29,9.20
2014,12,07,10,30,9.30
2014,12,07,10,31,9.30
2014,12,07,10,32,9.30
2014,12,07,10,33,9.30
2014,12,07,10,34,9.40
2014,12,07,10,35,9.40
2014,12,07,10,36,9.50
2014,12,07,10,37,9.50
2014,12,07,10,38,9.60
2014,12,07,10,39,9.60
2014,12,07,10,40,9.60
2014,12,07,10,41,9.60
2014,12,07,10,42,9.60
2014,12,07,10,43,9.60
2014,12,07,10,44,9.60
2014,12,07,10,45,9.70
2014,12,07,10,46,9.70
2014,12,07,10,47,9.70
2014,12,07,10,48,9.70
2014,12,07,10,49,9.70
2014,12,07,10,50,9.80
2014,12,07,10,51,9.80
2014,12,07,10,52,9.80
2014,12,07,10,53,9.80
2014,12,07,10,54,9.90
2014,12,07,10,55,9.90
2014,12,07,10,56,9.90
2014,12,07,10,57,9.90
2014,12,07,10,58,9.90
2014,12,07,10,59,10.00
2014,12,07,11,00,10.00
2014,12,07,11,01,10.00
2014,12,07,11,02,10.00
2014,12,07,11,03,10.10
2014,12,07,11,04,10.10
2014,12,07,11,05,10.10
2014,12,07,11,06,10.10
2014,12,07,11,07,10.20
2014,12,07,11,08,10.20
2014,12,07,11,09,10.20
2014,12,07,11,10,10.20
2014,12,07,11,11,10.20
2014,12,07,11,12,10.30
2014,12,07,11,13,10.30
2014,12,07,11,14,10.30
2014,12,07,11,15,10.40
2014,12,07,11,16,10.40
2014,12,07,11,17,10.40
2014,12,07,11,18,10.40
2014,12,07,11,19,10.40
2014,12,07,11,20,10.40
2014,12,07,11,21,10.40
2014,12,07,11,22,10.40
2014,12,07,11,23,10.40
2014,12,07,11,24,10.40
2014,12,07,11,25,10.30
2014,12,07,11,26,10.30
2014,12,07,11,27,10.30
2014,12,07,11,28,10.20
2014,12,07,11,29,10.20
2014,12,07,11,30,10.20
2014,12,07,11,31,10.20
2014,12,07,11,32,10.20
2014,12,07,11,33,10.20
2014,12,07,11,34,10.20
2014,12,07,11,35,10.20
2014,12,07,11,36,10.20
2014,12,07,11,37,10.20
2014,12,07,11,38,10.20
2014,12,07,11,39,10.20
2014,12,07,11,40,10.20
2014,12,07,11,41,10.20
2014,12,07,11,42,10.10
2014,12,07,11,43,10.10
2014,12,07,11,44,10.10
2014,12,07,11,45,10.10
2014,12,07,11,46,10.10
2014,12,07,11,47,10.10
2014,12,07,11,48,10.20
2014,12,07,11,49,10.20
2014,12,07,11,50,10.20
2014,12,07,11,51,10.20
2014,12,07,11,52,10.20
2014,12,07,11,53,10.20
2014,12,07,11,54,10.20
2014,12,07,11,55,10.20
2014,12,07,11,56,10.20
2014,12,07,11,57,10.20
2014,12,07,11,58,10.20
2014,12,07,11,59,10.30
2014,12,07,12,00,10.30
2014,12,07,12,01,10.30
2014,12,07,12,02,10.30
2014,12,07,12,03,10.30
2014,12,07,12,04,10.30
2014,12,07,12,05,10.30
2014,12,07,12,06,10.30
2014,12,07,12,07,10.30
2014,12,07,12,08,10.30
2014,12,07,12,09,10.30
2014,12,07,12,10,10.30
2014,12,07,12,11,10.30
2014,12,07,12,12,10.30
2014,12,07,12,13,10.30
2014,12,07,12,14,10.30
2014,12,07,12,15,10.30
2014,12,07,12,16,10.30
2014,12,07,12,17,10.30
2014,12,07,12,18,10.30
2014,12,07,12,19,10.30
2014,12,07,12,20,10.30
2014,12,07,12,21,10.30
2014,12,07,12,22,10.30
2014,12,07,12,23,10.30
2014,12,07,12,24,10.30
2014,12,07,12,25,10.30
2014,12,07,12,26,10.30
2014,12,07,12,27,10.20
2014,12,07,12,28,10.20
2014,12,07,12,29,10.20
2014,12,07,12,30,10.10
2014,12,07,12,31,10.10
2014,12,07,12,32,10.10
2014,12,07,12,33,10.10
2014,12,07,12,34,10.10
2014,12,07,12,35,10.10
2014,12,07,12,36,10.10
2014,12,07,12,37,10.10
2014,12,07,12,38,10.10
2014,12,07,12,39,10.10
2014,12,07,12,40,10.10
2014,12,07,12,41,10.10
2014,12,07,12,42,10.10
2014,12,07,12,43,10.10
2014,12,07,12,44,10.10
2014,12,07,12,45,10.10
2014,12,07,12,46,10.10
2014,12,07,12,47,10.20
2014,12,07,12,48,10.20
2014,12,07,12,49,10.20
2014,12,07,12,50,10.20
2014,12,07,12,51,10.20
2014,12,07,12,52,10.30
2014,12,07,12,53,10.30
2014,12,07,12,54,10.30
2014,12,07,12,55,10.30
2014,12,07,12,56,10.30
2014,12,07,12,57,10.30
2014,12,07,12,58,10.30
2014,12,07,12,59,10.30
2014,12,07,13,00,10.30
2014,12,07,13,01,10.40
2014,12,07,13,02,10.40
2014,12,07,13,03,10.40
2014,12,07,13,04,10.30
2014,12,07,13,05,10.30
2014,12,07,13,06,10.30
2014,12,07,13,07,10.30
2014,12,07,13,08,10.20
2014,12,07,13,09,10.20
2014,12,07,13,10,10.20
2014,12,07,13,11,10.30
2014,12,07,13,12,10.30
2014,12,07,13,13,10.30
2014,12,07,13,14,10.30
2014,12,07,13,15,10.30
2014,12,07,13,16,10.30
2014,12,07,13,17,10.30
2014,12,07,13,18,10.30
2014,12,07,13,19,10.30
2014,12,07,13,20,10.30
2014,12,07,13,21,10.30
2014,12,07,13,22,10.30
2014,12,07,13,23,10.30
2014,12,07,13,24,10.30
2014,12,07,13,25,10.30
2014,12,07,13,26,10.30
2014,12,07,13,27,10.30
2014,12,07,13,28,10.30
2014,12,07,13,29,10.30
2014,12,07,13,30,10.30
2014,12,07,13,31,10.30
2014,12,07,13,32,10.30
2014,12,07,13,33,10.30
2014,12,07,13,34,10.30
2014,12,07,13,35,10.30
2014,12,07,13,36,10.30
2014,12,07,13,37,10.40
2014,12,07,13,38,10.40
2014,12,07,13,39,10.30
2014,12,07,13,40,10.30
2014,12,07,13,41,10.30
2014,12,07,13,42,10.30
2014,12,07,13,43,10.30
2014,12,07,13,44,10.30
2014,12,07,13,45,10.30
2014,12,07,13,46,10.30
2014,12,07,13,47,10.30
2014,12,07,13,48,10.30
2014,12,07,13,49,10.30
2014,12,07,13,50,10.30
2014,12,07,13,51,10.20
2014,12,07,13,52,10.20
2014,12,07,13,53,10.20
2014,12,07,13,54,10.20
2014,12,07,13,55,10.20
2014,12,07,13,56,10.20
2014,12,07,13,57,10.20
2014,12,07,13,58,10.10
2014,12,07,13,59,10.10
2014,12,07,14,00,10.10
2014,12,07,14,01,10.10
2014,12,07,14,02,10.10
2014,12,07,14,03,10.10
2014,12,07,14,04,10.10
2014,12,07,14,05,10.00
2014,12,07,14,06,10.00
2014,12,07,14,07,10.00
2014,12,07,14,08,10.00
2014,12,07,14,09,10.00
2014,12,07,14,10,9.90
2014,12,07,14,11,9.90
2014,12,07,14,12,9.90
2014,12,07,14,13,9.90
2014,12,07,14,14,9.90
2014,12,07,14,15,9.90
2014,12,07,14,16,9.90
2014,12,07,14,17,9.90
2014,12,07,14,18,9.90
2014,12,07,14,19,9.90
2014,12,07,14,20,9.90
2014,12,07,14,21,9.90
2014,12,07,14,22,9.90
2014,12,07,14,23,9.90
2014,12,07,14,24,9.90
2014,12,07,14,25,9.90
2014,12,07,14,26,9.80
2014,12,07,14,27,9.80
2014,12,07,14,28,9.80
2014,12,07,14,29,9.80
2014,12,07,14,30,9.80
2014,12,07,14,31,9.80
2014,12,07,14,32,9.80
2014,12,07,14,33,9.80
2014,12,07,14,34,9.80
2014,12,07,14,35,9.80
2014,12,07,14,36,9.80
2014,12,07,14,37,9.80
2014,12,07,14,38,9.80
2014,12,07,14,39,9.80
2014,12,07,14,40,9.80
2014,12,07,14,41,9.80
2014,12,07,14,42,9.80
2014,12,07,14,43,9.80
2014,12,07,14,44,9.80
2014,12,07,14,45,9.80
2014,12,07,14,46,9.80
2014,12,07,14,47,9.80
2014,12,07,14,48,9.80
2014,12,07,14,49,9.80
2014,12,07,14,50,9.80
2014,12,07,14,51,9.70
2014,12,07,14,52,9.70
2014,12,07,14,53,9.70
2014,12,07,14,54,9.70
2014,12,07,14,55,9.70
2014,12,07,14,56,9.70
2014,12,07,14,57,9.70
2014,12,07,14,58,9.60
2014,12,07,14,59,9.60
2014,12,07,15,00,9.60
2014,12,07,15,01,9.60
2014,12,07,15,02,9.60
2014,12,07,15,03,9.60
2014,12,07,15,04,9.50
2014,12,07,15,05,9.50
2014,12,07,15,06,9.50
2014,12,07,15,07,9.50
2014,12,07,15,08,9.50
2014,12,07,15,09,9.50
2014,12,07,15,10,9.40
2014,12,07,15,11,9.40
2014,12,07,15,12,9.40
2014,12,07,15,13,9.40
2014,12,07,15,14,9.40
2014,12,07,15,15,9.40
2014,12,07,15,16,9.40
2014,12,07,15,17,9.40
2014,12,07,15,18,9.40
2014,12,07,15,19,9.50
2014,12,07,15,20,9.50
2014,12,07,15,21,9.50
2014,12,07,15,22,9.50
2014,12,07,15,23,9.50
2014,12,07,15,24,9.50
2014,12,07,15,25,9.50
2014,12,07,15,26,9.40
2014,12,07,15,27,9.40
2014,12,07,15,28,9.40
2014,12,07,15,29,9.40
2014,12,07,15,30,9.40
2014,12,07,15,31,9.40
2014,12,07,15,32,9.40
2014,12,07,15,33,9.40
2014,12,07,15,34,9.40
2014,12,07,15,35,9.40
2014,12,07,15,36,9.40
2014,12,07,15,37,9.30
2014,12,07,15,38,9.30
2014,12,07,15,39,9.30
2014,12,07,15,40,9.30
2014,12,07,15,41,9.30
2014,12,07,15,42,9.30
2014,12,07,15,43,9.30
2014,12,07,15,44,9.30
2014,12,07,15,45,9.30
2014,12,07,15,46,9.30
2014,12,07,15,47,9.30
2014,12,07,15,48,9.30
2014,12,07,15,49,9.20
2014,12,07,15,50,9.20
2014,12,07,15,51,9.20
2014,12,07,15,52,9.20
2014,12,07,15,53,9.20
2014,12,07,15,54,9.20
2014,12,07,15,55,9.20
2014,12,07,15,56,9.20
2014,12,07,15,57,9.20
2014,12,07,15,58,9.10
2014,12,07,15,59,9.10
2014,12,07,16,00,9.10
2014,12,07,16,01,9.10
2014,12,07,16,02,9.10
2014,12,07,16,03,9.10
2014,12,07,16,04,9.00
2014,12,07,16,05,9.00
2014,12,07,16,06,9.00
2014,12,07,16,07,9.00
2014,12,07,16,08,8.90
2014,12,07,16,09,8.90
2014,12,07,16,10,8.90
2014,12,07,16,11,8.90
2014,12,07,16,12,8.90
2014,12,07,16,13,8.80
2014,12,07,16,14,8.80
2014,12,07,16,15,8.80
2014,12,07,16,16,8.80
2014,12,07,16,17,8.80
2014,12,07,16,18,8.80
2014,12,07,16,19,8.80
2014,12,07,16,20,8.80
2014,12,07,16,21,8.80
2014,12,07,16,22,8.80
2014,12,07,16,23,8.70
2014,12,07,16,24,8.70
2014,12,07,16,25,8.70
2014,12,07,16,26,8.70
2014,12,07,16,27,8.70
2014,12,07,16,28,8.70
2014,12,07,16,29,8.70
2014,12,07,16,30,8.70
2014,12,07,16,31,8.70
2014,12,07,16,32,8.70
2014,12,07,16,33,8.70
2014,12,07,16,34,8.70
2014,12,07,16,35,8.70
2014,12,07,16,36,8.70
2014,12,07,16,37,8.70
2014,12,07,16,38,8.70
2014,12,07,16,39,8.70
2014,12,07,16,40,8.70
2014,12,07,16,41,8.80
2014,12,07,16,42,8.80
2014,12,07,16,43,8.80
2014,12,07,16,44,8.80
2014,12,07,16,45,8.80
2014,12,07,16,46,8.80
2014,12,07,16,47,8.80
2014,12,07,16,48,8.80
2014,12,07,16,49,8.80
2014,12,07,16,50,8.80
2014,12,07,16,51,8.80
2014,12,07,16,52,8.80
2014,12,07,16,53,8.80
2014,12,07,16,54,8.80
2014,12,07,16,55,8.80
2014,12,07,16,56,8.80
2014,12,07,16,57,8.80
2014,12,07,16,58,8.80
2014,12,07,16,59,8.80
2014,12,07,17,00,8.80
2014,12,07,17,01,8.80
2014,12,07,17,02,8.80
2014,12,07,17,03,8.80
2014,12,07,17,04,8.80
2014,12,07,17,05,8.90
2014,12,07,17,06,8.90
2014,12,07,17,07,8.90
2014,12,07,17,08,8.90
2014,12,07,17,09,8.90
2014,12,07,17,10,8.90
2014,12,07,17,11,8.90
2014,12,07,17,12,8.90
2014,12,07,17,13,8.90
2014,12,07,17,14,8.90
2014,12,07,17,15,8.80
2014,12,07,17,16,8.80
2014,12,07,17,17,8.80
2014,12,07,17,18,8.80
2014,12,07,17,19,8.80
2014,12,07,17,20,8.80
2014,12,07,17,21,8.80
2014,12,07,17,22,8.80
2014,12,07,17,23,8.80
2014,12,07,17,24,8.80
2014,12,07,17,25,8.80
2014,12,07,17,26,8.80
2014,12,07,17,27,8.80
2014,12,07,17,28,8.80
2014,12,07,17,29,8.80
2014,12,07,17,30,8.80
2014,12,07,17,31,8.80
2014,12,07,17,32,8.80
2014,12,07,17,33,8.80
2014,12,07,17,34,8.80
2014,12,07,17,35,8.80
2014,12,07,17,36,8.80
2014,12,07,17,37,8.80
2014,12,07,17,38,8.80
2014,12,07,17,39,8.80
2014,12,07,17,40,8.80
2014,12,07,17,41,8.80
2014,12,07,17,42,8.80
2014,12,07,17,43,8.80
2014,12,07,17,44,8.80
2014,12,07,17,45,8.80
2014,12,07,17,46,8.80
2014,12,07,17,47,8.80
2014,12,07,17,48,8.80
2014,12,07,17,49,8.80
2014,12,07,17,50,8.80
2014,12,07,17,51,8.80
2014,12,07,17,52,8.80
2014,12,07,17,53,8.80
2014,12,07,17,54,8.80
2014,12,07,17,55,8.80
2014,12,07,17,56,8.80
2014,12,07,17,57,8.80
2014,12,07,17,58,8.80
2014,12,07,17,59,8.80
2014,12,07,18,00,8.80
2014,12,07,18,01,8.80
2014,12,07,18,02,8.80
2014,12,07,18,03,8.80
2014,12,07,18,04,8.80
2014,12,07,18,05,8.90
2014,12,07,18,06,8.90
2014,12,07,18,07,8.90
2014,12,07,18,08,8.90
2014,12,07,18,09,8.90
2014,12,07,18,10,8.90
2014,12,07,18,11,8.90
2014,12,07,18,12,8.90
2014,12,07,18,13,8.90
2014,12,07,18,14,8.90
2014,12,07,18,15,8.90
2014,12,07,18,16,8.90
2014,12,07,18,17,8.90
2014,12,07,18,18,8.90
2014,12,07,18,19,8.90
2014,12,07,18,20,8.90
2014,12,07,18,21,8.80
2014,12,07,18,22,8.80
2014,12,07,18,23,8.80
2014,12,07,18,24,8.80
2014,12,07,18,25,8.80
2014,12,07,18,26,8.80
2014,12,07,18,27,8.80
2014,12,07,18,28,8.80
2014,12,07,18,29,8.80
2014,12,07,18,30,8.90
2014,12,07,18,31,8.90
2014,12,07,18,32,8.90
2014,12,07,18,33,8.80
2014,12,07,18,34,8.80
2014,12,07,18,35,8.80
2014,12,07,18,36,8.80
2014,12,07,18,37,8.80
2014,12,07,18,38,8.80
2014,12,07,18,39,8.80
2014,12,07,18,40,8.80
2014,12,07,18,41,8.80
2014,12,07,18,42,8.80
2014,12,07,18,43,8.80
2014,12,07,18,44,8.80
2014,12,07,18,45,8.80
2014,12,07,18,46,8.80
2014,12,07,18,47,8.80
2014,12,07,18,48,8.80
2014,12,07,18,49,8.80
2014,12,07,18,50,8.80
2014,12,07,18,51,8.80
2014,12,07,18,52,8.80
2014,12,07,18,53,8.80
2014,12,07,18,54,8.80
2014,12,07,18,55,8.80
2014,12,07,18,56,8.80
2014,12,07,18,57,8.80
2014,12,07,18,58,8.80
2014,12,07,18,59,8.80
2014,12,07,19,00,8.80
2014,12,07,19,01,8.80
2014,12,07,19,02,8.80
2014,12,07,19,03,8.80
2014,12,07,19,04,8.80
2014,12,07,19,05,8.80
2014,12,07,19,06,8.80
2014,12,07,19,07,8.80
2014,12,07,19,08,8.80
2014,12,07,19,09,8.80
2014,12,07,19,10,8.80
2014,12,07,19,11,8.80
2014,12,07,19,12,8.80
2014,12,07,19,13,8.80
2014,12,07,19,14,8.80
2014,12,07,19,15,8.80
2014,12,07,19,16,8.80
2014,12,07,19,17,8.80
2014,12,07,19,18,8.80
2014,12,07,19,19,8.80
2014,12,07,19,20,8.80
2014,12,07,19,21,8.80
2014,12,07,19,22,8.80
2014,12,07,19,23,8.80
2014,12,07,19,24,8.80
2014,12,07,19,25,8.80
2014,12,07,19,26,8.80
2014,12,07,19,27,8.80
2014,12,07,19,28,8.80
2014,12,07,19,29,8.90
2014,12,07,19,30,8.90
2014,12,07,19,31,8.90
2014,12,07,19,32,9.00
2014,12,07,19,33,9.00
2014,12,07,19,34,9.00
2014,12,07,19,35,9.00
2014,12,07,19,36,9.00
2014,12,07,19,37,9.10
2014,12,07,19,38,9.10
2014,12,07,19,39,9.10
2014,12,07,19,40,9.10
2014,12,07,19,41,9.10
2014,12,07,19,42,9.20
2014,12,07,19,43,9.20
2014,12,07,19,44,9.20
2014,12,07,19,45,9.20
2014,12,07,19,46,9.20
2014,12,07,19,47,9.20
2014,12,07,19,48,9.20
2014,12,07,19,49,9.20
2014,12,07,19,50,9.20
2014,12,07,19,51,9.20
2014,12,07,19,52,9.20
2014,12,07,19,53,9.20
2014,12,07,19,54,9.20
2014,12,07,19,55,9.20
2014,12,07,19,56,9.20
2014,12,07,19,57,9.20
2014,12,07,19,58,9.20
2014,12,07,19,59,9.20
2014,12,07,20,00,9.30
2014,12,07,20,01,9.20
2014,12,07,20,02,9.20
2014,12,07,20,03,9.20
2014,12,07,20,04,9.20
2014,12,07,20,05,9.20
2014,12,07,20,06,9.20
2014,12,07,20,07,9.20
2014,12,07,20,08,9.20
2014,12,07,20,09,9.20
2014,12,07,20,10,9.20
2014,12,07,20,11,9.20
2014,12,07,20,12,9.30
2014,12,07,20,13,9.30
2014,12,07,20,14,9.30
2014,12,07,20,15,9.30
2014,12,07,20,16,9.30
2014,12,07,20,17,9.40
2014,12,07,20,18,9.40
2014,12,07,20,19,9.40
2014,12,07,20,20,9.40
2014,12,07,20,21,9.40
2014,12,07,20,22,9.40
2014,12,07,20,23,9.40
2014,12,07,20,24,9.40
2014,12,07,20,25,9.40
2014,12,07,20,26,9.40
2014,12,07,20,27,9.40
2014,12,07,20,28,9.30
2014,12,07,20,29,9.30